When you browse on this site, cookies collect data to enhance your experience and personalize the content and advertising you see.
Visit our Privacy Policy to learn more. By continuing to use the site, you agree to this use of cookies and data.
  • în România
  • Lista ţărilor
  • Pe 7 zile
  • Temperatura apei
  • Hartă satelitară
  • Meteo pe hartă
  • Widget-uri
  • user-avatar
    Intrare

    Meteo pe oră la Yevlakh

    Astăzi, 19 Iulie, Vineri

    Timp Temperatura Precipitaţii Vânt Presiune Umiditate
    00:00 +29°C° 0 mm 4 m/s 754 mmHg 46%
    01:00 +29°C° 0 mm 3 m/s 754 mmHg 48%
    02:00 +28°C° 0 mm 2 m/s 754 mmHg 51%
    03:00 +27°C° 0 mm 1 m/s 754 mmHg 53%
    04:00 +28°C° 0 mm 1 m/s 754 mmHg 53%
    05:00 +28°C° 0 mm 1 m/s 755 mmHg 52%
    06:00 +28°C° 0 mm 1 m/s 755 mmHg 52%
    07:00 +30°C° 0 mm 1 m/s 755 mmHg 48%
    08:00 +32°C° 0 mm 2 m/s 755 mmHg 44%
    09:00 +34°C° 0 mm 2 m/s 755 mmHg 40%
    10:00 +36°C° 0 mm 2 m/s 755 mmHg 38%
    11:00 +37°C° 0 mm 2 m/s 755 mmHg 35%
    12:00 +39°C° 0 mm 2 m/s 755 mmHg 32%
    13:00 +39°C° 0 mm 2 m/s 755 mmHg 30%
    14:00 +40°C° 0 mm 3 m/s 755 mmHg 28%
    15:00 +42°C° 0 mm 3 m/s 754 mmHg 27%
    16:00 +42°C° 0 mm 3 m/s 755 mmHg 27%
    17:00 +40°C° 0 mm 3 m/s 755 mmHg 27%
    18:00 +41°C° 0 mm 4 m/s 755 mmHg 27%
    19:00 +38°C° 0 mm 4 m/s 756 mmHg 32%
    20:00 +36°C° 0 mm 5 m/s 757 mmHg 36%
    21:00 +33°C° 0 mm 6 m/s 757 mmHg 41%
    22:00 +33°C° 0 mm 5 m/s 758 mmHg 42%
    23:00 +32°C° 0 mm 5 m/s 758 mmHg 44%

    Mâine, 20 Iulie, Sâmbătă

    Timp Temperatura Precipitaţii Vânt Presiune Umiditate
    00:00 +30°C° 0 mm 4 m/s 758 mmHg 46%
    01:00 +30°C° 0 mm 3 m/s 758 mmHg 48%
    02:00 +29°C° 0 mm 2 m/s 758 mmHg 49%
    03:00 +29°C° 0 mm 1 m/s 758 mmHg 51%
    04:00 +29°C° 0 mm 1 m/s 759 mmHg 50%
    05:00 +29°C° 0 mm 1 m/s 759 mmHg 50%
    06:00 +30°C° 0 mm 1 m/s 759 mmHg 49%
    07:00 +31°C° 0 mm 1 m/s 760 mmHg 45%
    08:00 +32°C° 0 mm 1 m/s 760 mmHg 42%
    09:00 +35°C° 0 mm 2 m/s 760 mmHg 38%
    10:00 +37°C° 0 mm 2 m/s 760 mmHg 34%
    11:00 +38°C° 0 mm 3 m/s 760 mmHg 31%
    12:00 +41°C° 0 mm 4 m/s 760 mmHg 28%
    13:00 +42°C° 0 mm 5 m/s 759 mmHg 26%
    14:00 +42°C° 0 mm 5 m/s 759 mmHg 24%
    15:00 +44°C° 0 mm 6 m/s 759 mmHg 23%
    16:00 +44°C° 0 mm 7 m/s 759 mmHg 23%
    17:00 +43°C° 0 mm 8 m/s 759 mmHg 24%
    18:00 +42°C° 0 mm 9 m/s 760 mmHg 25%
    19:00 +39°C° 0 mm 8 m/s 760 mmHg 28%
    20:00 +37°C° 0 mm 8 m/s 761 mmHg 32%
    21:00 +34°C° 0 mm 8 m/s 761 mmHg 36%
    22:00 +33°C° 0 mm 7 m/s 761 mmHg 38%
    23:00 +33°C° 0 mm 6 m/s 762 mmHg 40%

    Poimâine, 21 Iulie, Duminică

    Timp Temperatura Precipitaţii Vânt Presiune Umiditate
    00:00 +32°C° 0 mm 4 m/s 762 mmHg 41%
    01:00 +30°C° 0 mm 4 m/s 762 mmHg 43%
    02:00 +30°C° 0 mm 4 m/s 762 mmHg 44%
    03:00 +29°C° 0 mm 3 m/s 762 mmHg 45%
    04:00 +30°C° 0 mm 4 m/s 762 mmHg 44%
    05:00 +30°C° 0 mm 5 m/s 762 mmHg 43%
    06:00 +30°C° 0 mm 5 m/s 762 mmHg 42%
    07:00 +33°C° 0 mm 5 m/s 762 mmHg 39%
    08:00 +34°C° 0 mm 6 m/s 762 mmHg 35%
    09:00 +36°C° 0 mm 6 m/s 762 mmHg 31%
    10:00 +38°C° 0 mm 6 m/s 761 mmHg 29%
    11:00 +40°C° 0 mm 6 m/s 761 mmHg 27%
    12:00 +41°C° 0 mm 7 m/s 760 mmHg 24%
    13:00 +42°C° 0 mm 6 m/s 759 mmHg 23%
    14:00 +42°C° 0 mm 6 m/s 759 mmHg 23%
    15:00 +43°C° 0 mm 5 m/s 758 mmHg 22%
    16:00 +42°C° 0 mm 6 m/s 758 mmHg 22%
    17:00 +42°C° 0 mm 6 m/s 758 mmHg 23%
    18:00 +41°C° 0 mm 7 m/s 758 mmHg 24%
    19:00 +39°C° 0 mm 6 m/s 759 mmHg 28%
    20:00 +36°C° 0 mm 6 m/s 759 mmHg 32%
    21:00 +34°C° 0 mm 6 m/s 759 mmHg 36%
    22:00 +33°C° 0 mm 5 m/s 759 mmHg 39%
    23:00 +30°C° 0 mm 4 m/s 759 mmHg 42%

    22 Iulie, Luni

    Timp Temperatura Precipitaţii Vânt Presiune Umiditate
    00:00 +29°C° 0 mm 4 m/s 759 mmHg 45%
    01:00 +29°C° 0 mm 3 m/s 759 mmHg 48%
    02:00 +28°C° 0 mm 3 m/s 759 mmHg 50%
    03:00 +28°C° 0 mm 2 m/s 758 mmHg 52%
    04:00 +28°C° 0 mm 2 m/s 758 mmHg 51%
    05:00 +28°C° 0 mm 2 m/s 758 mmHg 51%
    06:00 +29°C° 0 mm 2 m/s 758 mmHg 50%
    07:00 +31°C° 0 mm 2 m/s 758 mmHg 44%
    08:00 +34°C° 0 mm 3 m/s 758 mmHg 39%
    09:00 +36°C° 0 mm 4 m/s 758 mmHg 33%
    10:00 +37°C° 0 mm 4 m/s 757 mmHg 31%
    11:00 +38°C° 0 mm 4 m/s 757 mmHg 28%
    12:00 +41°C° 0 mm 4 m/s 756 mmHg 26%
    13:00 +42°C° 0 mm 5 m/s 756 mmHg 24%
    14:00 +43°C° 0 mm 5 m/s 755 mmHg 23%
    15:00 +43°C° 0 mm 5 m/s 754 mmHg 22%
    16:00 +43°C° 0 mm 5 m/s 754 mmHg 22%
    17:00 +43°C° 0 mm 5 m/s 754 mmHg 22%
    18:00 +42°C° 0 mm 5 m/s 754 mmHg 23%
    19:00 +40°C° 0 mm 5 m/s 754 mmHg 28%
    20:00 +36°C° 0 mm 5 m/s 755 mmHg 32%
    21:00 +34°C° 0 mm 5 m/s 755 mmHg 37%
    22:00 +33°C° 0 mm 5 m/s 755 mmHg 40%
    23:00 +32°C° 0 mm 4 m/s 755 mmHg 43%

    23 Iulie, Marţi

    Timp Temperatura Precipitaţii Vânt Presiune Umiditate
    00:00 +30°C° 0 mm 3 m/s 755 mmHg 46%
    01:00 +30°C° 0 mm 2 m/s 755 mmHg 47%
    02:00 +29°C° 0 mm 2 m/s 755 mmHg 49%
    03:00 +29°C° 0 mm 1 m/s 755 mmHg 51%
    04:00 +29°C° 0 mm 1 m/s 755 mmHg 51%
    05:00 +29°C° 0 mm 2 m/s 755 mmHg 51%
    06:00 +30°C° 0 mm 2 m/s 756 mmHg 50%
    07:00 +31°C° 0 mm 2 m/s 755 mmHg 46%
    08:00 +34°C° 0 mm 2 m/s 755 mmHg 41%
    09:00 +35°C° 0 mm 2 m/s 755 mmHg 37%
    10:00 +37°C° 0 mm 2 m/s 755 mmHg 34%
    11:00 +38°C° 0 mm 2 m/s 754 mmHg 30%
    12:00 +39°C° 0 mm 3 m/s 754 mmHg 27%
    13:00 +40°C° 0 mm 3 m/s 754 mmHg 26%
    14:00 +42°C° 0 mm 3 m/s 753 mmHg 25%
    15:00 +42°C° 0 mm 4 m/s 753 mmHg 24%
    16:00 +42°C° 0 mm 4 m/s 753 mmHg 25%
    17:00 +42°C° 0 mm 3 m/s 753 mmHg 25%
    18:00 +40°C° 0 mm 3 m/s 753 mmHg 26%
    19:00 +38°C° 0 mm 4 m/s 754 mmHg 30%
    20:00 +36°C° 0 mm 5 m/s 754 mmHg 35%
    21:00 +34°C° 0 mm 5 m/s 755 mmHg 40%
    22:00 +33°C° 0 mm 4 m/s 755 mmHg 42%
    23:00 +32°C° 0 mm 4 m/s 754 mmHg 45%

    24 Iulie, Miercuri

    Timp Temperatura Precipitaţii Vânt Presiune Umiditate
    00:00 +30°C° 0 mm 3 m/s 754 mmHg 48%
    01:00 +29°C° 0 mm 2 m/s 754 mmHg 49%
    02:00 +29°C° 0 mm 2 m/s 754 mmHg 51%
    03:00 +28°C° 0 mm 2 m/s 754 mmHg 53%
    04:00 +29°C° 0 mm 2 m/s 754 mmHg 52%
    05:00 +29°C° 0 mm 2 m/s 754 mmHg 52%
    06:00 +29°C° 0 mm 2 m/s 754 mmHg 52%
    07:00 +31°C° 0 mm 3 m/s 754 mmHg 48%
    08:00 +34°C° 0 mm 3 m/s 754 mmHg 44%
    09:00 +35°C° 0 mm 3 m/s 754 mmHg 40%
    10:00 +37°C° 0 mm 2 m/s 753 mmHg 36%
    11:00 +38°C° 0 mm 2 m/s 753 mmHg 31%
    12:00 +40°C° 0 mm 2 m/s 753 mmHg 27%
    13:00 +40°C° 0 mm 1 m/s 752 mmHg 26%
    14:00 +41°C° 0 mm 1 m/s 752 mmHg 24%
    15:00 +42°C° 0 mm 1 m/s 751 mmHg 23%
    16:00 +42°C° 0 mm 2 m/s 751 mmHg 23%
    17:00 +41°C° 0 mm 2 m/s 751 mmHg 24%
    18:00 +41°C° 0 mm 2 m/s 751 mmHg 25%
    19:00 +38°C° 0 mm 3 m/s 752 mmHg 29%
    20:00 +36°C° 0 mm 5 m/s 753 mmHg 34%
    21:00 +34°C° 0 mm 6 m/s 753 mmHg 38%
    22:00 +32°C° 0 mm 4 m/s 753 mmHg 42%
    23:00 +30°C° 0 mm 3 m/s 754 mmHg 46%
    Arată mai mult